The Dalles, WA

6:28 AM PDT on July 20, 2019 (GMT -0700)
Columbia Gorge Regional-The Dalles

Weather History for KDLS - May, 2019

Change the Weather History Date:

Sunday, May 12, 2019

  Actual Average Record
Temperature  
Mean Temperature 69 °F -  
Max Temperature 82 °F 74 °F 92 °F (1949)
Min Temperature 57 °F 47 °F 34 °F (1985)
Cooling Degree Days 4    
Growing Degree Days 19 (Base 50)    
Moisture  
Dew Point 42 °F    
Average Humidity 41    
Maximum Humidity 62    
Minimum Humidity 21    
Precipitation  
Precipitation 0.00 in - - ()
Sea Level Pressure  
Sea Level Pressure 29.84 in    
Wind  
Wind Speed 13 mph (WNW)    
Max Wind Speed 22 mph    
Max Gust Speed 32 mph    
Visibility 10 miles    
Events      
Averages and records for this station are not official NWS values.
T = Trace of Precipitation, MM = Missing Value Source: NWS Daily Summary

Daily Weather History Graph

Daily Weather History Graph

Search for Another Location

Airport or City:

Astronomy

May. 12, 2019 Rise Set
Actual Time 5:37 AM PDT 8:25 PM PDT
Civil Twilight 5:03 AM PDT 8:59 PM PDT
Nautical Twilight 4:19 AM PDT 9:43 PM PDT
Astronomical Twilight 3:28 AM PDT 10:34 PM PDT
Moon 1:07 PM PDT (5/12) 2:48 AM PDT (5/12)
Length of Visible Light 15h 56m
Length of Day
14h 47m
First Quarter, 59% of the Moon is Illuminated
May 12
First Quarter
May 18
Full
May 26
Last Quarter
Jun 3
New
Jun 9
First Quarter

Hourly Weather History & Observations

Time (PDT) Temp. Dew Point Humidity Pressure Visibility Wind Dir Wind Speed Gust Speed Precip Events Conditions
12:53 AM 64.0 °F 46.0 °F 52% 29.82 in 10.0 mi WNW 5.8 mph - N/A   Clear
1:53 AM 64.0 °F 46.0 °F 52% 29.83 in 10.0 mi NW 13.8 mph - N/A   Clear
2:53 AM 63.0 °F 44.1 °F 50% 29.83 in 10.0 mi NW 17.3 mph - N/A   Clear
3:53 AM 62.1 °F 42.1 °F 48% 29.84 in 10.0 mi WNW 13.8 mph - N/A   Clear
4:53 AM 62.1 °F 42.1 °F 48% 29.85 in 10.0 mi WNW 10.4 mph 17.3 mph N/A   Clear
5:53 AM 60.1 °F 43.0 °F 53% 29.87 in 10.0 mi West 11.5 mph - N/A   Clear
6:40 AM 57.9 °F 45.0 °F 62% 29.88 in 10.0 mi NW 13.8 mph - N/A   Clear
6:53 AM 57.9 °F 45.0 °F 62% 29.88 in 10.0 mi NW 13.8 mph - N/A   Clear
7:53 AM 60.1 °F 46.0 °F 60% 29.89 in 10.0 mi NW 6.9 mph - N/A   Clear
8:53 AM 62.1 °F 46.9 °F 58% 29.89 in 10.0 mi NW 8.1 mph - N/A   Clear
9:53 AM 66.9 °F 46.9 °F 49% 29.87 in 10.0 mi NW 12.7 mph 18.4 mph N/A   Clear
10:53 AM 71.1 °F 48.0 °F 44% 29.87 in 10.0 mi NW 16.1 mph - N/A   Clear
11:53 AM 73.9 °F 48.0 °F 40% 29.85 in 10.0 mi NW 16.1 mph 23.0 mph N/A   Clear
12:53 PM 78.1 °F 45.0 °F 31% 29.83 in 10.0 mi WNW 17.3 mph - N/A   Clear
1:53 PM 80.1 °F 45.0 °F 29% 29.82 in 10.0 mi WNW 19.6 mph 32.2 mph N/A   Clear
2:53 PM 81.0 °F 44.1 °F 27% 29.81 in 10.0 mi WNW 21.9 mph 32.2 mph N/A   Clear
3:53 PM 81.0 °F 42.1 °F 25% 29.80 in 10.0 mi WNW 17.3 mph 23.0 mph N/A   Clear
4:53 PM 80.1 °F 37.0 °F 21% 29.78 in 10.0 mi WNW 21.9 mph 28.8 mph N/A   Clear
5:53 PM 77.0 °F 35.1 °F 22% 29.78 in 10.0 mi WNW 17.3 mph - N/A   Clear
6:53 PM 73.9 °F 33.1 °F 22% 29.78 in 10.0 mi WNW 17.3 mph - N/A   Clear
7:53 PM 73.0 °F 34.0 °F 24% 29.79 in 10.0 mi NW 12.7 mph - N/A   Clear
8:53 PM 71.1 °F 35.1 °F 27% 29.82 in 10.0 mi WNW 21.9 mph 32.2 mph N/A   Clear
9:53 PM 68.0 °F 36.0 °F 31% 29.84 in 10.0 mi West 12.7 mph 20.7 mph N/A   Clear
10:53 PM 64.9 °F 39.9 °F 40% 29.86 in 10.0 mi NNW 10.4 mph - N/A   Clear
11:53 PM 64.9 °F 43.0 °F 45% 29.85 in 10.0 mi WSW 5.8 mph - N/A   Clear